Weather WX

World > North America > United States > California

Pioneertown, California Regional Weather

Lat: 34.16N, Lon: 116.5W
Wx Zone: CAZ060
Feedback

Pioneertown, CA Regional Weather

Expires:201907160900;;718961
ASUS46 KLOX 160814
RWRCA 

SOUTHERN CALIFORNIA WEATHER ROUNDUP
NATIONAL WEATHER SERVICE OXNARD CALIFORNIA
100 AM PDT TUE JUL 16 2019

NOTE: "FAIR" INDICATES FEW OR NO CLOUDS BELOW 12,000 FEET WITH NO 
SIGNIFICANT WEATHER AND/OR OBSTRUCTIONS TO VISIBILITY.

  -  STATIONS PRECEEDED BY AN ASTERISK (*) ARE NOT NWS OR FAA 
     STATIONS AND ARE NOT SUBJECT TO NWS AND FAA QUALITY CONTROL.


CAZ028-029-059-060-099-160900-
ANTELOPE VALLEY AND SURROUNDING AREAS

  
CITY           SKY/WX    TMP DP  RH WIND       PRES   REMARKS
LANCASTER      CLEAR     78  44  29 W14       29.92F                  
PALMDALE       CLEAR     77  37  23 W9        29.95F                  
*POPPY PARK      N/A     76  44  31 W15         N/A                   

CITY           SKY/WX    TMP DP  RH WIND       PRES   REMARKS
29 PALMS       CLEAR     85  32  15 NW9       29.92F                  
BARSTOW/DAGGET CLEAR     82  34  17 W14       29.86F                  
BISHOP         CLEAR     65  37  35 N3        29.98S                  
EDWARDS AFB    CLEAR     76  36  24 SW14      29.89S                  
MOJAVE         CLEAR     79  45  29 NW23G36   29.92S                  
NEEDLES        CLEAR     97  24   7 E5        29.71S HX  90           

$$


SKY/WX - Weather  TMP - Temperature  DP - Dew Point  RH - Relative Humidity
WIND - Wind Direction/Speed PRES - Barometric Pressure VSB - Visibility
WCI - Wind Chill Index E13G22 Wind - East Wind 13 mph/Gusts of 22 mph